Time,TemperatureF,DewpointF,PressureIn,WindDirection,WindDirectionDegrees,WindSpeedMPH,WindSpeedGustMPH,Humidity,HourlyPrecipIn,Conditions,Clouds,dailyrainin,SoftwareType,DateUTC
2014-10-25 00:01:00,49.2,40.6,30.03,SSW,202,0.0,0.0,72,0.00,,,0.00,Wunderground v.1.15,2014-10-25 04:01:00,
2014-10-25 00:07:00,49.1,40.5,30.03,SSW,202,0.0,0.0,72,0.00,,,0.00,Wunderground v.1.15,2014-10-25 04:07:00,
2014-10-25 00:13:00,48.8,40.2,30.03,SSW,202,0.0,0.0,72,0.00,,,0.00,Wunderground v.1.15,2014-10-25 04:13:00,
2014-10-25 00:18:00,48.6,40.3,30.03,SSW,202,0.0,0.0,73,0.00,,,0.00,Wunderground v.1.15,2014-10-25 04:18:00,
2014-10-25 00:24:00,48.5,40.2,30.02,SSW,202,0.0,0.0,73,0.00,,,0.00,Wunderground v.1.15,2014-10-25 04:24:00,
2014-10-25 00:30:00,48.3,40.4,30.02,SSW,202,0.0,0.0,74,0.00,,,0.00,Wunderground v.1.15,2014-10-25 04:30:00,
2014-10-25 00:35:00,48.2,40.3,30.02,SSW,202,0.0,0.0,74,0.00,,,0.00,Wunderground v.1.15,2014-10-25 04:35:00,
2014-10-25 00:41:00,48.2,40.6,30.02,SSW,202,0.0,0.0,75,0.00,,,0.00,Wunderground v.1.15,2014-10-25 04:41:00,
2014-10-25 00:47:00,48.0,40.5,30.02,SSW,202,0.0,0.0,75,0.00,,,0.00,Wunderground v.1.15,2014-10-25 04:47:00,
2014-10-25 00:52:00,48.0,40.8,30.02,SSW,202,0.0,0.0,76,0.00,,,0.00,Wunderground v.1.15,2014-10-25 04:52:00,
2014-10-25 00:58:00,47.9,40.7,30.02,SSW,202,0.0,0.0,76,0.00,,,0.00,Wunderground v.1.15,2014-10-25 04:58:00,
2014-10-25 01:04:00,47.9,40.7,30.02,SSW,202,0.0,0.0,76,0.00,,,0.00,Wunderground v.1.15,2014-10-25 05:04:00,
2014-10-25 01:10:00,47.7,40.8,30.01,SSW,202,0.0,0.0,77,0.00,,,0.00,Wunderground v.1.15,2014-10-25 05:10:00,
2014-10-25 01:15:00,47.7,40.8,30.01,SSW,202,0.0,0.0,77,0.00,,,0.00,Wunderground v.1.15,2014-10-25 05:15:00,
2014-10-25 01:21:00,47.7,40.8,30.01,SSW,202,0.0,0.0,77,0.00,,,0.00,Wunderground v.1.15,2014-10-25 05:21:00,
2014-10-25 01:26:00,47.7,41.2,30.01,SSW,202,0.0,0.0,78,0.00,,,0.00,Wunderground v.1.15,2014-10-25 05:26:00,
2014-10-25 01:32:00,47.9,41.4,30.01,SSW,202,0.0,0.0,78,0.00,,,0.00,Wunderground v.1.15,2014-10-25 05:32:00,
2014-10-25 01:37:00,48.0,41.5,30.01,SSW,202,0.0,0.0,78,0.00,,,0.00,Wunderground v.1.15,2014-10-25 05:37:00,
2014-10-25 01:43:00,48.2,41.7,30.01,SSW,202,0.0,0.0,78,0.00,,,0.00,Wunderground v.1.15,2014-10-25 05:43:00,
2014-10-25 01:49:00,48.2,41.7,30.01,SSW,202,0.0,0.0,78,0.00,,,0.00,Wunderground v.1.15,2014-10-25 05:49:00,
2014-10-25 01:54:00,48.2,42.0,30.00,SSW,202,0.0,0.0,79,0.00,,,0.00,Wunderground v.1.15,2014-10-25 05:54:00,
2014-10-25 02:00:00,48.0,41.8,30.00,SSW,202,0.0,0.0,79,0.00,,,0.00,Wunderground v.1.15,2014-10-25 06:00:00,
2014-10-25 02:05:00,48.0,41.8,30.00,SSW,202,0.0,0.0,79,0.00,,,0.00,Wunderground v.1.15,2014-10-25 06:05:00,
2014-10-25 02:10:00,48.0,42.1,30.00,SSW,202,0.0,0.0,80,0.00,,,0.00,Wunderground v.1.15,2014-10-25 06:10:00,
2014-10-25 02:15:00,48.0,42.1,30.00,SSW,202,0.0,0.0,80,0.00,,,0.00,Wunderground v.1.15,2014-10-25 06:15:00,
2014-10-25 02:20:00,48.2,42.3,30.00,SSW,202,0.0,0.0,80,0.00,,,0.00,Wunderground v.1.15,2014-10-25 06:20:00,
2014-10-25 02:25:00,48.0,42.1,30.01,SSW,202,0.0,0.0,80,0.00,,,0.00,Wunderground v.1.15,2014-10-25 06:25:00,
2014-10-25 02:30:00,48.0,42.1,30.01,SSW,202,0.0,0.0,80,0.00,,,0.00,Wunderground v.1.15,2014-10-25 06:30:00,
2014-10-25 02:35:00,48.0,42.1,30.01,SSW,202,0.0,0.0,80,0.00,,,0.00,Wunderground v.1.15,2014-10-25 06:35:00,
2014-10-25 02:40:00,48.0,42.1,30.00,SSW,202,0.0,0.0,80,0.00,,,0.00,Wunderground v.1.15,2014-10-25 06:40:00,
2014-10-25 02:45:00,47.9,42.3,30.00,SSW,202,0.0,0.0,81,0.00,,,0.00,Wunderground v.1.15,2014-10-25 06:45:00,
2014-10-25 02:50:00,47.9,42.7,30.00,SSW,202,0.0,0.0,82,0.00,,,0.00,Wunderground v.1.15,2014-10-25 06:50:00,
2014-10-25 02:55:00,47.9,42.7,30.01,SSW,202,0.0,0.0,82,0.00,,,0.00,Wunderground v.1.15,2014-10-25 06:55:00,
2014-10-25 03:00:00,47.9,42.7,30.01,SSW,202,0.0,0.0,82,0.00,,,0.00,Wunderground v.1.15,2014-10-25 07:00:00,
2014-10-25 03:05:00,47.9,42.7,30.01,SSW,202,0.0,0.0,82,0.00,,,0.00,Wunderground v.1.15,2014-10-25 07:05:00,
2014-10-25 03:10:00,47.9,42.7,30.01,SSW,202,0.0,0.0,82,0.00,,,0.00,Wunderground v.1.15,2014-10-25 07:10:00,
2014-10-25 03:15:00,47.9,43.0,30.01,SSW,202,0.0,0.0,83,0.00,,,0.00,Wunderground v.1.15,2014-10-25 07:15:00,
2014-10-25 03:20:00,47.9,43.0,30.01,SSW,202,0.0,0.0,83,0.00,,,0.00,Wunderground v.1.15,2014-10-25 07:20:00,
2014-10-25 03:25:00,48.2,43.3,30.00,SSW,202,0.0,0.0,83,0.00,,,0.00,Wunderground v.1.15,2014-10-25 07:25:00,
2014-10-25 03:30:00,48.2,43.3,30.00,SSW,202,0.0,0.0,83,0.00,,,0.00,Wunderground v.1.15,2014-10-25 07:30:00,
2014-10-25 03:35:00,48.2,43.3,30.00,SSW,202,0.0,0.0,83,0.00,,,0.00,Wunderground v.1.15,2014-10-25 07:35:00,
2014-10-25 03:40:00,48.2,43.3,30.00,SSW,202,0.0,0.0,83,0.00,,,0.00,Wunderground v.1.15,2014-10-25 07:40:00,
2014-10-25 03:45:00,48.2,43.3,30.00,SSW,202,0.0,0.0,83,0.00,,,0.00,Wunderground v.1.15,2014-10-25 07:45:00,
2014-10-25 03:50:00,48.2,43.6,30.00,SSW,202,0.0,0.0,84,0.00,,,0.00,Wunderground v.1.15,2014-10-25 07:50:00,
2014-10-25 03:55:00,48.2,43.6,29.99,SSW,202,0.0,0.0,84,0.00,,,0.00,Wunderground v.1.15,2014-10-25 07:55:00,
2014-10-25 04:00:00,48.2,43.6,29.99,SSW,202,0.0,0.0,84,0.00,,,0.00,Wunderground v.1.15,2014-10-25 08:00:00,
2014-10-25 04:05:00,48.2,43.6,29.99,SSW,202,0.0,0.0,84,0.00,,,0.00,Wunderground v.1.15,2014-10-25 08:05:00,
2014-10-25 04:10:00,48.3,43.7,29.98,SSW,202,0.0,0.0,84,0.00,,,0.00,Wunderground v.1.15,2014-10-25 08:10:00,
2014-10-25 04:15:00,48.3,43.7,29.98,SSW,202,0.0,0.0,84,0.00,,,0.00,Wunderground v.1.15,2014-10-25 08:15:00,
2014-10-25 04:20:00,48.5,43.9,29.98,SSW,202,0.0,0.0,84,0.00,,,0.00,Wunderground v.1.15,2014-10-25 08:20:00,
2014-10-25 04:25:00,48.5,43.9,29.99,SSW,202,0.0,0.0,84,0.00,,,0.00,Wunderground v.1.15,2014-10-25 08:25:00,
2014-10-25 04:30:00,48.5,43.9,29.99,SSW,202,0.0,0.0,84,0.00,,,0.00,Wunderground v.1.15,2014-10-25 08:30:00,
2014-10-25 04:35:00,48.5,43.9,29.99,SSW,202,0.0,0.0,84,0.00,,,0.00,Wunderground v.1.15,2014-10-25 08:35:00,
2014-10-25 04:40:00,48.5,43.9,29.99,SSW,202,0.0,0.0,84,0.00,,,0.00,Wunderground v.1.15,2014-10-25 08:40:00,
2014-10-25 04:45:00,48.3,43.7,29.99,SSW,202,0.0,0.0,84,0.00,,,0.00,Wunderground v.1.15,2014-10-25 08:45:00,
2014-10-25 04:50:00,48.3,44.0,29.99,SSW,202,0.0,0.0,85,0.00,,,0.00,Wunderground v.1.15,2014-10-25 08:50:00,
2014-10-25 04:55:00,48.3,44.0,29.98,SSW,202,0.0,0.0,85,0.00,,,0.00,Wunderground v.1.15,2014-10-25 08:55:00,
2014-10-25 05:00:00,48.2,43.9,29.98,SSW,202,0.0,0.0,85,0.00,,,0.00,Wunderground v.1.15,2014-10-25 09:00:00,
2014-10-25 05:05:00,48.0,43.7,29.98,SSW,202,0.0,0.0,85,0.00,,,0.00,Wunderground v.1.15,2014-10-25 09:05:00,
2014-10-25 05:10:00,48.0,44.0,29.98,SSW,202,0.0,0.0,86,0.00,,,0.00,Wunderground v.1.15,2014-10-25 09:10:00,
2014-10-25 05:15:00,47.9,43.9,29.98,SSW,202,0.0,0.0,86,0.00,,,0.00,Wunderground v.1.15,2014-10-25 09:15:00,
2014-10-25 05:20:00,47.7,44.0,29.98,SSW,202,0.0,0.0,87,0.00,,,0.00,Wunderground v.1.15,2014-10-25 09:20:00,
2014-10-25 05:25:00,47.7,44.0,29.98,SSW,202,0.0,0.0,87,0.00,,,0.00,Wunderground v.1.15,2014-10-25 09:25:00,
2014-10-25 05:30:00,47.7,44.0,29.98,SSW,202,0.0,0.0,87,0.00,,,0.00,Wunderground v.1.15,2014-10-25 09:30:00,
2014-10-25 05:35:00,47.7,44.3,29.98,SSW,202,0.0,0.0,88,0.00,,,0.00,Wunderground v.1.15,2014-10-25 09:35:00,
2014-10-25 05:40:00,47.9,44.5,29.98,SSW,202,0.0,0.0,88,0.00,,,0.00,Wunderground v.1.15,2014-10-25 09:40:00,
2014-10-25 05:45:00,47.9,44.5,29.98,SSW,202,0.0,0.0,88,0.00,,,0.00,Wunderground v.1.15,2014-10-25 09:45:00,
2014-10-25 05:50:00,47.9,44.5,29.98,SSW,202,0.0,0.0,88,0.00,,,0.00,Wunderground v.1.15,2014-10-25 09:50:00,
2014-10-25 05:55:00,48.0,44.6,29.98,SSW,202,0.0,0.0,88,0.00,,,0.00,Wunderground v.1.15,2014-10-25 09:55:00,
2014-10-25 06:00:00,48.0,44.9,29.98,SSW,202,0.0,0.0,89,0.00,,,0.00,Wunderground v.1.15,2014-10-25 10:00:00,
2014-10-25 06:05:00,47.9,44.5,29.98,SSW,202,0.0,0.0,88,0.00,,,0.00,Wunderground v.1.15,2014-10-25 10:05:00,
2014-10-25 06:10:00,47.9,44.8,29.98,SSW,202,0.0,0.0,89,0.00,,,0.00,Wunderground v.1.15,2014-10-25 10:10:00,
2014-10-25 06:15:00,47.9,44.8,29.98,SSW,202,0.0,0.0,89,0.00,,,0.00,Wunderground v.1.15,2014-10-25 10:15:00,
2014-10-25 06:20:00,47.7,44.6,29.98,SSW,202,0.0,0.0,89,0.00,,,0.00,Wunderground v.1.15,2014-10-25 10:20:00,
2014-10-25 06:25:00,47.9,45.1,29.98,SSW,202,0.0,0.0,90,0.00,,,0.00,Wunderground v.1.15,2014-10-25 10:25:00,
2014-10-25 06:30:00,47.9,45.1,29.98,SSW,202,0.0,0.0,90,0.00,,,0.00,Wunderground v.1.15,2014-10-25 10:30:00,
2014-10-25 06:35:00,47.7,44.9,29.98,SSW,202,0.0,0.0,90,0.00,,,0.00,Wunderground v.1.15,2014-10-25 10:35:00,
2014-10-25 06:40:00,47.7,44.9,29.98,SSW,202,0.0,0.0,90,0.00,,,0.00,Wunderground v.1.15,2014-10-25 10:40:00,
2014-10-25 06:45:00,47.7,44.9,29.98,SSW,202,0.0,0.0,90,0.00,,,0.00,Wunderground v.1.15,2014-10-25 10:45:00,
2014-10-25 06:50:00,47.7,45.2,29.98,SSW,202,0.0,0.0,91,0.00,,,0.00,Wunderground v.1.15,2014-10-25 10:50:00,
2014-10-25 06:55:00,47.7,45.2,29.97,SSW,202,0.0,0.0,91,0.00,,,0.00,Wunderground v.1.15,2014-10-25 10:55:00,
2014-10-25 07:00:00,47.7,45.2,29.97,SSW,202,0.0,0.0,91,0.00,,,0.00,Wunderground v.1.15,2014-10-25 11:00:00,
2014-10-25 07:05:00,47.7,45.2,29.97,SSW,202,0.0,0.0,91,0.00,,,0.00,Wunderground v.1.15,2014-10-25 11:05:00,
2014-10-25 07:11:00,47.7,45.2,29.96,SSW,202,0.0,0.0,91,0.00,,,0.00,Wunderground v.1.15,2014-10-25 11:11:00,
2014-10-25 07:16:00,47.9,45.4,29.96,SSW,202,0.0,0.0,91,0.00,,,0.00,Wunderground v.1.15,2014-10-25 11:16:00,
2014-10-25 07:21:00,48.0,45.8,29.96,SSW,202,0.0,0.0,92,0.00,,,0.00,Wunderground v.1.15,2014-10-25 11:21:00,
2014-10-25 07:26:00,48.0,45.5,29.96,SSW,202,0.0,0.0,91,0.00,,,0.00,Wunderground v.1.15,2014-10-25 11:26:00,
2014-10-25 07:31:00,48.0,45.5,29.96,SSW,202,0.0,0.0,91,0.00,,,0.00,Wunderground v.1.15,2014-10-25 11:31:00,
2014-10-25 07:36:00,48.0,45.8,29.96,SSW,202,0.0,0.0,92,0.00,,,0.00,Wunderground v.1.15,2014-10-25 11:36:00,
2014-10-25 07:41:00,48.0,45.8,29.96,SSW,202,0.0,0.0,92,0.00,,,0.00,Wunderground v.1.15,2014-10-25 11:41:00,
2014-10-25 07:46:00,47.9,45.7,29.96,SSW,202,0.0,1.0,92,0.00,,,0.00,Wunderground v.1.15,2014-10-25 11:46:00,
2014-10-25 07:51:00,47.9,45.7,29.96,SSW,202,0.0,0.0,92,0.00,,,0.00,Wunderground v.1.15,2014-10-25 11:51:00,
2014-10-25 07:56:00,48.0,45.8,29.96,SSW,202,0.0,0.0,92,0.00,,,0.00,Wunderground v.1.15,2014-10-25 11:56:00,
2014-10-25 08:01:00,48.0,45.8,29.96,SSW,202,0.0,0.0,92,0.00,,,0.00,Wunderground v.1.15,2014-10-25 12:01:00,
2014-10-25 08:06:00,48.2,46.0,29.96,SSW,202,0.0,2.0,92,0.00,,,0.00,Wunderground v.1.15,2014-10-25 12:06:00,
2014-10-25 08:11:00,48.9,47.2,29.96,SSW,202,0.0,0.0,94,0.00,,,0.00,Wunderground v.1.15,2014-10-25 12:11:00,
2014-10-25 08:16:00,49.6,47.9,29.96,SSW,202,0.0,2.0,94,0.00,,,0.00,Wunderground v.1.15,2014-10-25 12:16:00,
2014-10-25 08:21:00,50.4,48.5,29.96,SSW,202,0.0,0.0,93,0.00,,,0.00,Wunderground v.1.15,2014-10-25 12:21:00,
2014-10-25 08:26:00,50.8,48.6,29.96,SSW,202,0.0,0.0,92,0.00,,,0.00,Wunderground v.1.15,2014-10-25 12:26:00,
2014-10-25 08:31:00,51.3,48.8,29.96,SSW,202,1.0,3.0,91,0.00,,,0.00,Wunderground v.1.15,2014-10-25 12:31:00,
2014-10-25 08:36:00,51.7,48.9,29.96,SSW,202,0.0,3.0,90,0.00,,,0.00,Wunderground v.1.15,2014-10-25 12:36:00,
2014-10-25 08:41:00,52.2,49.1,29.96,SSW,202,0.0,4.0,89,0.00,,,0.00,Wunderground v.1.15,2014-10-25 12:41:00,
2014-10-25 08:46:00,52.5,49.0,29.96,SSW,202,0.0,4.0,88,0.00,,,0.00,Wunderground v.1.15,2014-10-25 12:46:00,
2014-10-25 08:51:00,52.8,49.0,29.96,SSW,202,0.0,4.0,87,0.00,,,0.00,Wunderground v.1.15,2014-10-25 12:51:00,
2014-10-25 08:56:00,53.1,49.0,29.96,SSW,202,0.0,4.0,86,0.00,,,0.00,Wunderground v.1.15,2014-10-25 12:56:00,
2014-10-25 09:01:00,53.3,49.2,29.96,SSW,202,0.0,1.0,86,0.00,,,0.00,Wunderground v.1.15,2014-10-25 13:01:00,
2014-10-25 09:06:00,53.6,49.2,29.95,SSW,202,0.0,4.0,85,0.00,,,0.00,Wunderground v.1.15,2014-10-25 13:06:00,
2014-10-25 09:11:00,53.9,49.5,29.95,SSW,205,0.0,5.0,85,0.00,,,0.00,Wunderground v.1.15,2014-10-25 13:11:00,
2014-10-25 09:16:00,54.2,49.5,29.95,SW,225,0.0,5.0,84,0.00,,,0.00,Wunderground v.1.15,2014-10-25 13:16:00,
2014-10-25 09:21:00,54.5,49.8,29.96,SW,225,0.0,4.0,84,0.00,,,0.00,Wunderground v.1.15,2014-10-25 13:21:00,
2014-10-25 09:26:00,54.8,49.7,29.96,SW,232,3.0,5.0,83,0.00,,,0.00,Wunderground v.1.15,2014-10-25 13:26:00,
2014-10-25 09:31:00,55.0,49.6,29.96,SSW,213,0.0,4.0,82,0.00,,,0.00,Wunderground v.1.15,2014-10-25 13:31:00,
2014-10-25 09:36:00,55.3,49.9,29.96,SSW,209,0.0,7.0,82,0.00,,,0.00,Wunderground v.1.15,2014-10-25 13:36:00,
2014-10-25 09:41:00,55.7,50.0,29.96,SSW,202,2.0,6.0,81,0.00,,,0.00,Wunderground v.1.15,2014-10-25 13:41:00,
2014-10-25 09:46:00,56.0,50.3,29.96,South,175,0.0,6.0,81,0.00,,,0.00,Wunderground v.1.15,2014-10-25 13:46:00,
2014-10-25 09:51:00,56.2,50.1,29.95,SSW,211,0.0,2.0,80,0.00,,,0.00,Wunderground v.1.15,2014-10-25 13:51:00,
2014-10-25 09:56:00,56.5,50.4,29.95,SW,227,0.0,8.0,80,0.00,,,0.00,Wunderground v.1.15,2014-10-25 13:56:00,
2014-10-25 10:01:00,56.7,50.6,29.95,WSW,242,0.0,5.0,80,0.00,,,0.00,Wunderground v.1.15,2014-10-25 14:01:00,
2014-10-25 10:06:00,57.0,50.5,29.96,South,185,7.0,7.0,79,0.00,,,0.00,Wunderground v.1.15,2014-10-25 14:06:00,
2014-10-25 10:11:00,57.3,50.8,29.96,SSW,211,5.0,5.0,79,0.00,,,0.00,Wunderground v.1.15,2014-10-25 14:11:00,
2014-10-25 10:16:00,57.5,50.3,29.96,SW,227,1.0,6.0,77,0.00,,,0.00,Wunderground v.1.15,2014-10-25 14:16:00,
2014-10-25 10:21:00,57.5,50.7,29.96,WSW,239,1.0,2.0,78,0.00,,,0.00,Wunderground v.1.15,2014-10-25 14:21:00,
2014-10-25 10:26:00,57.5,50.3,29.96,SW,218,0.0,7.0,77,0.00,,,0.00,Wunderground v.1.15,2014-10-25 14:26:00,
2014-10-25 10:31:00,57.5,50.3,29.96,SW,219,1.0,7.0,77,0.00,,,0.00,Wunderground v.1.15,2014-10-25 14:31:00,
2014-10-25 10:36:00,57.5,50.3,29.96,SSW,196,4.0,8.0,77,0.00,,,0.00,Wunderground v.1.15,2014-10-25 14:36:00,
2014-10-25 10:41:00,57.6,50.8,29.96,SSW,202,0.0,2.0,78,0.00,,,0.00,Wunderground v.1.15,2014-10-25 14:41:00,
2014-10-25 10:46:00,58.0,50.8,29.96,SW,214,5.0,7.0,77,0.00,,,0.00,Wunderground v.1.15,2014-10-25 14:46:00,
2014-10-25 10:52:00,58.1,50.6,29.96,West,263,3.0,6.0,76,0.00,,,0.00,Wunderground v.1.15,2014-10-25 14:52:00,
2014-10-25 10:57:00,58.3,51.1,29.96,SW,220,0.0,9.0,77,0.00,,,0.00,Wunderground v.1.15,2014-10-25 14:57:00,
2014-10-25 11:02:00,58.4,50.9,29.96,SW,217,0.0,7.0,76,0.00,,,0.00,Wunderground v.1.15,2014-10-25 15:02:00,
2014-10-25 11:07:00,58.6,51.1,29.95,SW,214,0.0,7.0,76,0.00,,,0.00,Wunderground v.1.15,2014-10-25 15:07:00,
2014-10-25 11:12:00,58.6,51.1,29.95,SW,218,4.0,6.0,76,0.00,,,0.00,Wunderground v.1.15,2014-10-25 15:12:00,
2014-10-25 11:17:00,58.7,51.2,29.95,West,265,0.0,7.0,76,0.00,,,0.00,Wunderground v.1.15,2014-10-25 15:17:00,
2014-10-25 11:22:00,59.0,51.4,29.94,South,187,0.0,5.0,76,0.00,,,0.00,Wunderground v.1.15,2014-10-25 15:22:00,
2014-10-25 11:27:00,59.3,51.7,29.94,NW,304,5.0,9.0,76,0.00,,,0.00,Wunderground v.1.15,2014-10-25 15:27:00,
2014-10-25 11:32:00,59.5,51.6,29.94,SSW,206,5.0,7.0,75,0.00,,,0.00,Wunderground v.1.15,2014-10-25 15:32:00,
2014-10-25 11:37:00,59.6,51.3,29.94,SSW,207,6.0,8.0,74,0.00,,,0.00,Wunderground v.1.15,2014-10-25 15:37:00,
2014-10-25 11:42:00,59.8,51.5,29.94,SW,234,3.0,11.0,74,0.00,,,0.00,Wunderground v.1.15,2014-10-25 15:42:00,
2014-10-25 11:47:00,59.9,52.0,29.94,SSW,212,5.0,11.0,75,0.00,,,0.00,Wunderground v.1.15,2014-10-25 15:47:00,
2014-10-25 11:52:00,60.4,52.4,29.94,WSW,237,0.0,5.0,75,0.00,,,0.00,Wunderground v.1.15,2014-10-25 15:52:00,
2014-10-25 11:57:00,60.5,52.2,29.94,SSW,211,0.0,8.0,74,0.00,,,0.00,Wunderground v.1.15,2014-10-25 15:57:00,
2014-10-25 12:02:00,60.7,52.4,29.94,SSW,202,0.0,6.0,74,0.00,,,0.00,Wunderground v.1.15,2014-10-25 16:02:00,
2014-10-25 12:07:00,61.0,52.3,29.93,SW,229,0.0,6.0,73,0.00,,,0.00,Wunderground v.1.15,2014-10-25 16:07:00,
2014-10-25 12:12:00,61.0,52.3,29.93,SW,217,0.0,9.0,73,0.00,,,0.00,Wunderground v.1.15,2014-10-25 16:12:00,
2014-10-25 12:17:00,61.0,52.7,29.93,SSW,196,6.0,9.0,74,0.00,,,0.00,Wunderground v.1.15,2014-10-25 16:17:00,
2014-10-25 12:22:00,60.9,52.6,29.93,SSW,211,2.0,7.0,74,0.00,,,0.00,Wunderground v.1.15,2014-10-25 16:22:00,
2014-10-25 12:27:00,61.0,52.7,29.93,WSW,238,0.0,7.0,74,0.00,,,0.00,Wunderground v.1.15,2014-10-25 16:27:00,
2014-10-25 12:32:00,61.5,53.1,29.93,SW,236,1.0,7.0,74,0.00,,,0.00,Wunderground v.1.15,2014-10-25 16:32:00,
2014-10-25 12:37:00,62.0,52.9,29.92,SW,219,2.0,7.0,72,0.00,,,0.00,Wunderground v.1.15,2014-10-25 16:37:00,
2014-10-25 12:42:00,62.3,53.2,29.92,WSW,250,0.0,7.0,72,0.00,,,0.00,Wunderground v.1.15,2014-10-25 16:42:00,
2014-10-25 12:47:00,62.6,53.8,29.92,SW,234,2.0,7.0,73,0.00,,,0.00,Wunderground v.1.15,2014-10-25 16:47:00,
2014-10-25 12:52:00,62.7,53.5,29.91,SW,222,4.0,7.0,72,0.00,,,0.00,Wunderground v.1.15,2014-10-25 16:52:00,